Location: ????
(30.1475°N, 31.1342°E)
Time: 15:27:26
(UTC+00:00)

Cosmos 1605 Rocket - Pass Details

Date: 03 April 2023
Orbit: 943 x 1006 km, 82.9° (Epoch: 28 May)

Event Time Altitude Azimuth Distance (km) Brightness Sun altitude
Rises 03:03:40 0° 164° (SSE) 3,674 7.1 -9.2°
Reaches altitude 10° 03:06:19 10° 156° (SSE) 2,738 6.5 -8.7°
Maximum altitude 03:12:06 40° 89° (E) 1,433 5.7 -7.4°
Drops below altitude 10° 03:17:58 10° 23° (NNE) 2,779 6.9 -6.2°
Sets 03:20:40 0° 16° (NNE) 3,736 7.4 -5.6°
